| time (UTC) | temp F | wind direction | speed knots | gust knots | rain 1hr in | rain 24hr in | rain mn in | humidity % | barometer mb |
| 20260503050244 | 60 | 211 | 2.6 | 2.6 | 0.00 | 0.00 | 0.00 | 62 | 1016.4 |
| 20260503044741 | 61 | 120 | 0.9 | 1.7 | 0.00 | 0.00 | 0.00 | 60 | 1016.2 |
| 20260503043239 | 62 | 163 | 1.7 | 1.7 | 0.00 | 0.00 | 0.00 | 57 | 1016.0 |
| 20260503041739 | 63 | 337 | 0.9 | 1.7 | 0.00 | 0.00 | 0.00 | 56 | 1015.6 |
| 20260503040238 | 64 | 46 | 0.0 | 2.6 | 0.00 | 0.00 | 0.00 | 54 | 1015.6 |
| 20260503034735 | 65 | 101 | 0.9 | 0.9 | 0.00 | 0.00 | 0.00 | 51 | 1015.3 |
| 20260503033232 | 66 | 48 | 0.9 | 0.9 | 0.00 | 0.00 | 0.00 | 48 | 1015.1 |
| 20260503031731 | 68 | 216 | 1.7 | 1.7 | 0.00 | 0.00 | 0.00 | 47 | 1014.7 |
| 20260503030227 | 69 | 1 | 0.9 | 0.9 | 0.00 | 0.00 | 0.00 | 46 | 1014.6 |
| 20260503024724 | 70 | 36 | 0.9 | 1.7 | 0.00 | 0.00 | 0.00 | 43 | 1014.5 |
| 20260503023220 | 71 | 51 | 0.0 | 0.0 | 0.00 | 0.00 | 0.00 | 43 | 1014.2 |
| 20260503021719 | 72 | 78 | 0.0 | 0.9 | 0.00 | 0.00 | 0.00 | 41 | 1014.4 |
| 20260503020216 | 73 | 23 | 0.0 | 0.9 | 0.00 | 0.00 | 0.00 | 38 | 1014.3 |
| 20260503014717 | 74 | 48 | 0.9 | 0.9 | 0.00 | 0.00 | 0.00 | 45 | 1014.2 |
| 20260503013215 | 75 | 75 | 0.0 | 0.0 | 0.00 | 0.00 | 0.00 | 40 | 1014.0 |
| 20260503011711 | 77 | 41 | 0.9 | 0.9 | 0.00 | 0.00 | 0.00 | 35 | 1014.1 |
| 20260503010207 | 78 | 60 | 0.0 | 0.0 | 0.00 | 0.00 | 0.00 | 35 | 1014.2 |
| 20260503004704 | 81 | 58 | 0.0 | 0.0 | 0.00 | 0.00 | 0.00 | 34 | 1014.3 |
| 20260503003202 | 83 | 51 | 0.0 | 0.9 | 0.00 | 0.00 | 0.00 | 25 | 1014.3 |
| 20260503001657 | 81 | 65 | 0.0 | 1.7 | 0.00 | 0.00 | 0.00 | 21 | 1014.3 |
| 20260503000154 | 83 | 30 | 0.9 | 2.6 | 0.00 | 0.00 | 0.00 | 20 | 1014.5 |
| 20260502234651 | 81 | 86 | 1.7 | 2.6 | 0.00 | 0.00 | 0.00 | 17 | 1014.5 |
| 20260502233147 | 80 | 86 | 2.6 | 4.3 | 0.00 | 0.00 | 0.00 | 22 | 1014.6 |
| 20260502231643 | 80 | 92 | 1.7 | 2.6 | 0.00 | 0.00 | 0.00 | 21 | 1014.8 |
| 20260502230143 | 80 | 85 | 1.7 | 2.6 | 0.00 | 0.00 | 0.00 | 25 | 1014.9 |
| 20260502224638 | 80 | 79 | 4.3 | 6.1 | 0.00 | 0.00 | 0.00 | 26 | 1015.3 |
| 20260502223136 | 81 | 82 | 1.7 | 1.7 | 0.00 | 0.00 | 0.00 | 26 | 1015.3 |
| 20260502221632 | 80 | 106 | 4.3 | 6.1 | 0.00 | 0.00 | 0.00 | 26 | 1015.5 |
| 20260502220127 | 79 | 92 | 2.6 | 6.1 | 0.00 | 0.00 | 0.00 | 25 | 1015.6 |
| 20260502214625 | 81 | 75 | 0.9 | 0.9 | 0.00 | 0.00 | 0.00 | 27 | 1015.7 |
| 20260502213122 | 80 | 77 | 0.9 | 5.2 | 0.00 | 0.00 | 0.00 | 27 | 1016.0 |
| 20260502211619 | 79 | 69 | 3.5 | 5.2 | 0.00 | 0.00 | 0.00 | 30 | 1016.4 |
| 20260502210117 | 77 | 91 | 2.6 | 4.3 | 0.00 | 0.00 | 0.00 | 32 | 1016.5 |
| 20260502204613 | 77 | 93 | 2.6 | 4.3 | 0.00 | 0.00 | 0.00 | 29 | 1016.8 |
| 20260502203112 | 78 | 70 | 2.6 | 2.6 | 0.00 | 0.00 | 0.00 | 30 | 1016.8 |
| 20260502201607 | 76 | 119 | 2.6 | 4.3 | 0.00 | 0.00 | 0.00 | 34 | 1016.9 |
| 20260502194559 | 73 | 74 | 0.9 | 4.3 | 0.00 | 0.00 | 0.00 | 38 | 1017.5 |
| 20260502193055 | 73 | 110 | 1.7 | 1.7 | 0.00 | 0.00 | 0.00 | 42 | 1017.6 |
| 20260502191551 | 72 | 88 | 0.9 | 2.6 | 0.00 | 0.00 | 0.00 | 41 | 1017.9 |
| 20260502190049 | 71 | 50 | 0.9 | 1.7 | 0.00 | 0.00 | 0.00 | 40 | 1018.4 |
| 20260502184549 | 70 | 44 | 0.0 | 1.7 | 0.00 | 0.00 | 0.00 | 38 | 1018.5 |
| 20260502183044 | 69 | 69 | 1.7 | 2.6 | 0.00 | 0.00 | 0.00 | 42 | 1018.7 |
| 20260502181539 | 68 | 89 | 0.9 | 1.7 | 0.00 | 0.00 | 0.00 | 43 | 1019.1 |
| 20260502163021 | 56 | 70 | 3.5 | 4.3 | 0.00 | 0.00 | 0.00 | 65 | 1020.1 |
| 20260502161517 | 55 | 84 | 0.9 | 2.6 | 0.00 | 0.00 | 0.00 | 67 | 1020.1 |
| 20260502151425 | 50 | 37 | 0.9 | 0.9 | 0.00 | 0.00 | 0.00 | 79 | 1020.7 |
| 20260502122850 | 44 | 52 | 0.0 | 0.9 | 0.00 | 0.00 | 0.00 | 91 | 1020.3 |
| 20260502121347 | 44 | 102 | 0.0 | 1.7 | 0.00 | 0.00 | 0.00 | 91 | 1020.7 |
| 20260502115843 | 44 | 115 | 0.9 | 1.7 | 0.00 | 0.00 | 0.00 | 91 | 1020.5 |
| 20260502114340 | 44 | 47 | 0.0 | 0.9 | 0.00 | 0.00 | 0.00 | 92 | 1020.2 |
| 20260502112838 | 44 | 64 | 0.0 | 0.0 | 0.00 | 0.00 | 0.00 | 91 | 1020.5 |
| 20260502111336 | 45 | 49 | 0.0 | 0.0 | 0.00 | 0.00 | 0.00 | 90 | 1020.4 |
| 20260502105834 | 46 | 79 | 0.9 | 0.9 | 0.00 | 0.00 | 0.00 | 89 | 1020.7 |
| 20260502104332 | 46 | 40 | 0.0 | 0.0 | 0.00 | 0.00 | 0.00 | 88 | 1020.2 |
| 20260502102830 | 47 | 191 | 0.9 | 1.7 | 0.00 | 0.00 | 0.00 | 86 | 1019.9 |
| 20260502101327 | 46 | 6 | 0.9 | 0.9 | 0.00 | 0.00 | 0.00 | 89 | 1019.9 |
| 20260502091320 | 48 | 51 | 0.0 | 0.0 | 0.00 | 0.00 | 0.00 | 83 | 1019.8 |
| 20260502071256 | 53 | 189 | 1.7 | 2.6 | 0.00 | 0.00 | 0.00 | 73 | 1019.3 |
| 20260502065756 | 53 | 207 | 1.7 | 1.7 | 0.00 | 0.00 | 0.00 | 74 | 1019.4 |
| 20260502064255 | 54 | 22 | 0.9 | 0.9 | 0.00 | 0.00 | 0.00 | 72 | 1019.3 |
| 20260502062753 | 55 | 97 | 0.9 | 1.7 | 0.00 | 0.00 | 0.00 | 70 | 1019.3 |
| 20260502061253 | 55 | 191 | 0.9 | 1.7 | 0.00 | 0.00 | 0.00 | 69 | 1019.1 |
| 20260502055753 | 56 | 204 | 1.7 | 1.7 | 0.00 | 0.00 | 0.00 | 68 | 1018.8 |
| 20260502054252 | 56 | 194 | 1.7 | 2.6 | 0.00 | 0.00 | 0.00 | 67 | 1018.7 |
| 20260502052750 | 57 | 41 | 0.0 | 4.3 | 0.00 | 0.00 | 0.00 | 66 | 1018.6 |
| 20260502051250 | 58 | 299 | 2.6 | 5.2 | 0.00 | 0.00 | 0.00 | 64 | 1018.6 |